Погода в Чернышевке

Россия / Приморский край     44°12′00″N   133°07′53″E
темп.,
°C
ветер,
м/с
пор.,
м/с
влажн.,
%
обл.,
%
осадки,
мм/ч
давл.,
гПа
погр.,
м
19 апреля, пн
пн1901:00+6з366768 0.0 1006105
04:00+4зюз237877 0.0 100657
07:00+3зюз24772 0.0 100696
10:00+12зсз47410 0.0 10051019
13:00+15зсз69290 0.0 10031829
16:00+17сз611260 0.0 10022090
19:00+14сз22370 0.0 100320
22:00+10юз22455 0.0 100318
20 апреля, вт
вт2001:00+8зсз39566 0.0 1006261
04:00+6ссз5133672 0.0 10121311
07:00+2сз614340 0.0 10161214
10:00+5зсз816250 0.0 10161667
13:00+9сз919180 0.0 10162574
16:00+11сз821190 0.0 10152782
19:00+10сз615230 0.0 10161954
22:00+5з12340 0.0 101912
21 апреля, ср
ср2101:00+3з11410 0.0 102111
04:00+2юз11480 0.0 102111
07:00+2ююв11510 0.0 102211
10:00+11зюз12310 0.0 1022442
13:00+17зюз23220 0.0 10211100
16:00+20зюз23200 0.0 10191596
19:00+17зсз11300 0.0 101911
22:00+11в11410 0.0 102010
22 апреля, чт
чт2201:00+9вюв11465 0.0 102210
04:00+7в115083 0.0 102211
07:00+8в1150100 0.0 102210
10:00+16вюв0133100 0.0 1022262
13:00+22зсз1227100 0.0 1020794
16:00+24зсз3327100 0.0 10191407
19:00+18зюз4748100 0.0 1020230
22:00+13зюз2256100 0.0 102317
23 апреля, пт
пт2301:00+11юз1159100 0.0 102411
04:00+10зюз2258100 0.0 102435
07:00+10зюз2258100 0.0 102548
10:00+14юз1244100 0.0 1024390
13:00+19зсз2338100 0.0 1024863
16:00+20з4334100 0.0 10221537
19:00+17зюз254898 0.0 1022136
22:00+12зюз115995 0.0 102311